Location: Bazinghen
(50.8246°N, 1.6616°E)
Time: 06:58:39
(UTC+00:00)

COSMOS 2406 - Pass Details

Date: 09 April 2020
Orbit: 842 x 865 km, 71.0° (Epoch: 02 June)

Event Time Altitude Azimuth Distance (km) Brightness Sun altitude
Exits shadow 20:55:02 24° 178° (S) 1,691 4.4 -19.6°
Maximum altitude 20:58:19 53° 112° (ESE) 1,036 3.3 -20.0°
Drops below altitude 10° 21:03:51 10° 37° (NE) 2,493 5.7 -20.6°
Sets 21:06:22 0° 33° (NNE) 3,437 6.5 -20.9°
